Flag for Germany Weather past 2 weeks in Gross-Gerau, Hesse, Germany

Now
64 °F

Sunny.


Feels Like: 64 °F
Forecast: 44 / 67 °F
Wind: 12 mph from Southwest

Location: Frankfurt-M-Flughafen Airport

Current Time: Aug 21, 2014 at 3:12:55 PM

Latest Report: Aug 21, 2014 at 2:20 PM


Visibility: 10 mi

Pressure: 30.04 "Hg

Humidity: 49%

Dew point: 45 °F

Location of Gross-GerauLocation

Historic Weather in Gross-Gerau — Graph

°F

Gross-Gerau temperature yesterday

Maximum temperature yesterday: 66 °F (at 4:50 PM)
Minimum temperature yesterday: 46 °F (at 5:20 AM)
Average temperature yesterday: 57 °F

Past Weeks' High & Low Weather Summary

 TemperatureHumidityPressure
High82 °F (Aug 8, 2:50 PM)100% (Aug 10, 7:20 AM)30.09 "Hg (Aug 10, 7:20 AM)
Low46 °F (Aug 20, 5:20 AM)33% (Aug 12, 6:20 PM)29.65 "Hg (Aug 13, 2:20 PM)
Average64 °F73%29.91 "Hg
* Reported Aug 6 1:20 PM — Aug 21 1:50 PM, Gross-Gerau, Weather by CustomWeather, © 2014

Note: Actual official high and low records may vary slightly from our data, if they occured in-between our weather recording intervals... More about our weather records

Advertising

Gross-Gerau weather history for previous 24 hours

 ConditionsComfort  
Time TempWeatherWind HumidityBarometerVisibility
1:50 PM
Aug 21
64 °FScattered clouds.6 mph46%30.04 "HgN/A
1:20 PM64 °FScattered clouds.9 mph49%30.04 "HgN/A
12:50 PM63 °FScattered clouds.9 mph56%30.07 "HgN/A
12:20 PM63 °FScattered clouds.6 mph56%30.07 "HgN/A
11:50 AM63 °FPassing clouds.7 mph56%30.07 "HgN/A
11:20 AM61 °FPassing clouds.6 mph59%30.07 "HgN/A
10:50 AM59 °FPassing clouds.7 mph68%30.07 "HgN/A
10:20 AM59 °FPassing clouds.6 mph68%30.07 "HgN/A
9:50 AM57 °FPassing clouds.6 mph72%30.07 "HgN/A
9:20 AM55 °FSunny.6 mph77%30.07 "Hg10 mi
8:50 AM54 °FSunny.7 mph82%30.07 "Hg10 mi
8:20 AM52 °FSunny.5 mph88%30.07 "Hg10 mi
7:50 AM52 °FSunny.3 mph88%30.07 "Hg10 mi
7:20 AM50 °FClear.5 mph88%30.04 "Hg10 mi
6:50 AM48 °FClear.5 mph87%30.04 "Hg10 mi
6:20 AM50 °FClear.3 mph88%30.04 "Hg10 mi
5:50 AM52 °FClear.5 mph82%30.04 "Hg10 mi
5:20 AM50 °FClear.5 mph88%30.04 "Hg10 mi
4:50 AM50 °FClear.2 mph88%30.04 "Hg10 mi
4:20 AM50 °FClear.2 mph94%30.04 "Hg10 mi
3:50 AM52 °FClear.2 mph88%30.04 "Hg10 mi
3:20 AM50 °FClear.3 mph94%30.04 "Hg10 mi
2:50 AM52 °FClear.2 mph88%30.04 "Hg10 mi
2:20 AM54 °FClear.1 mph82%30.04 "Hg10 mi
1:50 AM54 °FClear.3 mph82%30.04 "Hg10 mi
1:20 AM54 °FClear.2 mph82%30.01 "Hg10 mi
12:50 AM54 °FClear.1 mph82%30.01 "Hg10 mi
12:20 AM55 °FClear.No wind77%30.01 "Hg10 mi
11:50 PM
Aug 20
55 °FClear.1 mph77%30.01 "Hg10 mi
11:20 PM57 °FClear.2 mph72%30.01 "Hg10 mi
10:50 PM59 °FClear.2 mph68%30.01 "Hg10 mi
10:20 PM57 °FClear.1 mph72%30.01 "Hg10 mi
9:50 PM61 °FClear.5 mph59%30.01 "Hg10 mi
9:20 PM59 °FSunny.3 mph68%30.01 "Hg10 mi
8:50 PM61 °FSunny.5 mph59%30.01 "Hg10 mi
8:20 PM61 °FSunny.6 mph59%30.01 "Hg10 mi
7:50 PM63 °FSunny.3 mph56%29.98 "Hg10 mi
7:20 PM64 °FSunny.7 mph49%29.98 "Hg10 mi
6:50 PM64 °FSunny.8 mph46%29.98 "Hg10 mi
6:20 PM64 °FSunny.7 mph46%29.98 "Hg10 mi
5:50 PM64 °FSunny.6 mph43%30.01 "Hg10 mi
5:20 PM64 °FPassing clouds.6 mph46%30.01 "HgN/A
4:50 PM66 °FPassing clouds.6 mph43%30.01 "HgN/A
4:20 PM64 °FSunny.9 mph46%30.01 "Hg10 mi
3:50 PM64 °FSunny.7 mph49%30.01 "Hg10 mi
3:20 PM64 °FPassing clouds.6 mph46%30.01 "HgN/A
Weather by CustomWeather, © 2014

See weather overviewHow to use our weather pages